Location: McFarlands Corners
(41.4117°N, 81.3382°W)
Time: 06:26:11
(UTC+00:00)

Injun/Solrad 3 - All Passes

Search period start: 18 February 2026 00:00
Search period end: 28 February 2026 00:00
Orbit: 873 x 983 km, 66.8° (Epoch: 17 February)

Date Brightness Start Highest point End Pass type
(mag) Time Alt. Az. Time Alt. Az. Time Alt. Az.
18 Feb - 01:04:13 10° NNW 01:10:14 51° NE 01:16:23 10° SE visible
18 Feb - 02:51:15 10° NW 02:56:26 28° WSW 03:01:41 10° SSW visible
18 Feb - 16:12:14 10° SSW 16:17:59 68° ESE 16:23:52 10° NE daylight
18 Feb - 18:00:25 10° W 18:05:00 23° NW 18:09:40 10° N daylight
18 Feb - 23:29:57 10° N 23:33:50 17° NE 23:37:47 10° ENE visible
19 Feb - 01:15:09 10° NNW 01:21:21 75° ENE 01:27:41 10° SE visible
19 Feb - 03:03:08 10° WNW 03:07:11 18° WSW 03:11:17 10° SW visible
19 Feb - 14:40:13 10° SE 14:43:20 15° ESE 14:46:29 10° ENE daylight
19 Feb - 16:23:10 10° SSW 16:28:59 80° WNW 16:34:57 10° NNE daylight
19 Feb - 18:12:45 10° WNW 18:16:27 17° NW 18:20:12 10° N daylight
19 Feb - 23:40:29 10° N 23:45:18 23° NE 23:50:12 10° E visible
20 Feb - 01:26:12 10° NNW 01:32:24 75° WSW 01:38:43 10° SSE visible
20 Feb - 03:16:24 10° W 03:17:52 11° W 03:19:19 10° WSW visible
20 Feb - 14:49:31 10° SSE 14:54:02 24° ESE 14:58:38 10° NE daylight
20 Feb - 16:34:23 10° SW 16:40:05 54° NW 16:45:54 10° NNE daylight
20 Feb - 18:25:38 10° WNW 18:28:01 12° NNW 18:30:25 10° N daylight
20 Feb - 23:51:10 10° NNW 23:56:39 32° NE 00:02:14 10° ESE visible
21 Feb - 01:37:23 10° NW 01:43:20 49° WSW 01:49:24 10° S visible
21 Feb - 14:59:32 10° S 15:04:50 37° ESE 15:10:13 10° NE daylight
21 Feb - 16:45:55 10° WSW 16:51:16 36° NW 16:56:45 10° NNE daylight
21 Feb - 22:17:52 10° NNE 22:19:47 11° NNE 22:21:41 10° NE daylight
22 Feb - 00:01:58 10° NNW 00:07:54 46° NE 00:13:56 10° SE visible
22 Feb - 01:48:47 10° NW 01:54:12 32° WSW 01:59:44 10° S visible
22 Feb - 15:10:01 10° SSW 15:15:43 59° ESE 15:21:31 10° NE daylight
22 Feb - 16:57:45 10° W 17:02:35 26° NW 17:07:30 10° N daylight
22 Feb - 22:27:51 10° N 22:31:23 15° NE 22:34:57 10° ENE daylight
23 Feb - 00:12:52 10° NNW 00:19:03 67° ENE 00:25:21 10° SE visible
23 Feb - 02:00:29 10° WNW 02:05:00 21° WSW 02:09:34 10° SSW visible
23 Feb - 13:38:50 10° SE 13:41:09 12° ESE 13:43:29 10° ENE daylight
23 Feb - 15:20:50 10° SSW 15:26:40 89° SE 15:32:39 10° NNE daylight
23 Feb - 17:09:57 10° W 17:13:59 19° NW 17:18:06 10° N daylight
23 Feb - 22:38:18 10° N 22:42:53 21° NE 22:47:30 10° E daylight
24 Feb - 00:23:52 10° NNW 00:30:07 84° WSW 00:36:28 10° SSE visible
24 Feb - 02:12:58 10° WNW 02:15:42 13° WSW 02:18:26 10° SW visible
24 Feb - 13:47:39 10° SSE 13:51:50 21° ESE 13:56:04 10° ENE daylight
24 Feb - 15:31:58 10° SW 15:37:44 61° WNW 15:43:39 10° NNE daylight
24 Feb - 17:22:37 10° WNW 17:25:31 14° NW 17:28:28 10° N daylight
24 Feb - 22:48:57 10° NNW 22:54:16 29° NE 22:59:40 10° ESE daylight
25 Feb - 00:35:01 10° NW 00:41:05 57° WSW 00:47:16 10° S visible
25 Feb - 13:57:30 10° S 14:02:36 32° ESE 14:07:46 10° NE daylight
25 Feb - 15:43:24 10° WSW 15:48:54 41° NW 15:54:31 10° NNE daylight
25 Feb - 17:36:44 10° NNW 17:37:09 10° NNW 17:37:35 10° NNW daylight
25 Feb - 21:16:21 10° NNE 21:17:16 10° NNE 21:18:11 10° NE daylight
25 Feb - 22:59:43 10° NNW 23:05:32 41° NE 23:11:28 10° ESE daylight
26 Feb - 00:46:19 10° NW 00:51:58 37° WSW 00:57:44 10° S visible
26 Feb - 14:07:50 10° S 14:13:26 51° ESE 14:19:09 10° NE daylight
26 Feb - 15:55:09 10° WSW 16:00:10 29° NW 16:05:19 10° NNE daylight
26 Feb - 21:25:47 10° N 21:28:54 14° NE 21:32:03 10° ENE daylight
26 Feb - 23:10:35 10° NNW 23:16:43 59° NE 23:22:58 10° SE daylight
27 Feb - 00:57:54 10° NW 01:02:47 24° WSW 01:07:44 10° SSW visible
27 Feb - 12:38:10 10° ESE 12:38:58 10° E 12:39:47 10° E daylight
27 Feb - 14:18:33 10° SSW 14:24:22 79° ESE 14:30:20 10° NNE daylight
27 Feb - 16:07:13 10° W 16:11:33 21° NW 16:15:58 10° N daylight
27 Feb - 21:36:09 10° N 21:40:26 19° NE 21:44:47 10° E daylight
27 Feb - 23:21:34 10° NNW 23:27:49 86° ENE 23:34:11 10° SSE daylight
